Time,TemperatureF,DewpointF,PressureIn,WindDirection,WindDirectionDegrees,WindSpeedMPH,WindSpeedGustMPH,Humidity,HourlyPrecipIn,Conditions,Clouds,dailyrainin,SoftwareType,DateUTC
2013-02-21 00:01:00,35.4,16.6,30.20,North,0,0.0,-999.0,46,0.00,Sunny,,0.00,Open2300\PHP-WU,2013-02-21 05:01:00,
2013-02-21 00:03:00,35.2,16.4,30.20,North,0,0.0,-999.0,46,0.00,Sunny,,0.00,Open2300\PHP-WU,2013-02-21 05:03:00,
2013-02-21 00:07:00,34.9,16.1,30.19,North,0,0.0,-999.0,46,0.00,Sunny,,0.00,Open2300\PHP-WU,2013-02-21 05:07:00,
2013-02-21 00:11:00,34.7,16.4,30.19,NE,45,0.0,-999.0,47,0.00,Sunny,,0.00,Open2300\PHP-WU,2013-02-21 05:11:00,
2013-02-21 00:17:00,34.9,16.1,30.19,NNE,22,0.0,-999.0,46,0.00,Sunny,,0.00,Open2300\PHP-WU,2013-02-21 05:17:00,
2013-02-21 00:23:00,35.1,16.8,30.20,NE,45,0.0,-999.0,47,0.00,Sunny,,0.00,Open2300\PHP-WU,2013-02-21 05:23:00,
2013-02-21 00:29:00,34.9,16.6,30.20,NE,45,0.0,-999.0,47,0.00,Sunny,,0.00,Open2300\PHP-WU,2013-02-21 05:29:00,
2013-02-21 00:35:00,35.2,16.9,30.20,NNE,22,0.0,-999.0,47,0.00,Sunny,,0.00,Open2300\PHP-WU,2013-02-21 05:35:00,
2013-02-21 00:41:00,34.9,16.1,30.20,NNE,22,0.0,-999.0,46,0.00,Sunny,,0.00,Open2300\PHP-WU,2013-02-21 05:41:00,
2013-02-21 00:47:00,34.9,16.6,30.20,North,0,0.0,-999.0,47,0.00,Sunny,,0.00,Open2300\PHP-WU,2013-02-21 05:47:00,
2013-02-21 00:53:00,35.1,16.8,30.19,North,0,0.0,-999.0,47,0.00,Sunny,,0.00,Open2300\PHP-WU,2013-02-21 05:53:00,
2013-02-21 00:59:00,35.2,16.9,30.19,North,0,0.0,-999.0,47,0.00,Sunny,,0.00,Open2300\PHP-WU,2013-02-21 05:59:00,
2013-02-21 01:05:00,35.2,16.9,30.19,North,0,0.0,-999.0,47,0.00,Sunny,,0.00,Open2300\PHP-WU,2013-02-21 06:05:00,
2013-02-21 01:11:00,34.9,16.6,30.19,North,0,0.0,-999.0,47,0.00,Sunny,,0.00,Open2300\PHP-WU,2013-02-21 06:11:00,
2013-02-21 01:17:00,34.5,16.8,30.20,North,0,0.0,-999.0,48,0.00,Sunny,,0.00,Open2300\PHP-WU,2013-02-21 06:17:00,
2013-02-21 01:23:00,34.3,16.6,30.20,North,0,0.0,-999.0,48,0.00,Sunny,,0.00,Open2300\PHP-WU,2013-02-21 06:23:00,
2013-02-21 01:29:00,34.3,16.6,30.19,North,0,0.0,-999.0,48,0.00,Sunny,,0.00,Open2300\PHP-WU,2013-02-21 06:29:00,
2013-02-21 01:35:00,34.3,16.6,30.19,North,0,0.0,-999.0,48,0.00,Sunny,,0.00,Open2300\PHP-WU,2013-02-21 06:35:00,
2013-02-21 01:41:00,34.2,16.9,30.19,North,0,0.0,-999.0,49,0.00,Sunny,,0.00,Open2300\PHP-WU,2013-02-21 06:41:00,
2013-02-21 01:47:00,34.0,16.7,30.19,NNE,22,0.0,-999.0,49,0.00,Sunny,,0.00,Open2300\PHP-WU,2013-02-21 06:47:00,
2013-02-21 01:53:00,34.2,16.4,30.19,NNE,22,0.0,-999.0,48,0.00,Sunny,,0.00,Open2300\PHP-WU,2013-02-21 06:53:00,
2013-02-21 01:59:00,33.8,17.1,30.19,NNE,22,0.0,-999.0,50,0.00,Sunny,,0.00,Open2300\PHP-WU,2013-02-21 06:59:00,
2013-02-21 02:05:00,33.4,17.2,30.19,NNE,22,0.0,-999.0,51,0.00,Sunny,,0.00,Open2300\PHP-WU,2013-02-21 07:05:00,
2013-02-21 02:11:00,32.7,17.0,30.19,NNE,22,0.0,-999.0,52,0.00,Sunny,,0.00,Open2300\PHP-WU,2013-02-21 07:11:00,
2013-02-21 02:17:00,31.8,17.0,30.19,NNE,22,0.0,-999.0,54,0.00,Sunny,,0.00,Open2300\PHP-WU,2013-02-21 07:17:00,
2013-02-21 02:23:00,31.1,16.3,30.20,NNE,22,0.0,-999.0,54,0.00,Sunny,,0.00,Open2300\PHP-WU,2013-02-21 07:23:00,
2013-02-21 02:29:00,30.7,16.8,30.20,NNE,22,0.0,-999.0,57,0.00,Sunny,,0.00,Open2300\PHP-WU,2013-02-21 07:29:00,
2013-02-21 02:35:00,29.8,17.2,30.20,NNE,22,0.0,-999.0,59,0.00,Sunny,,0.00,Open2300\PHP-WU,2013-02-21 07:35:00,
2013-02-21 02:41:00,29.1,16.6,30.21,NNE,22,0.0,-999.0,59,0.00,Sunny,,0.00,Open2300\PHP-WU,2013-02-21 07:41:00,
2013-02-21 02:47:00,28.8,16.7,30.20,NNE,22,0.0,-999.0,60,0.00,Sunny,,0.00,Open2300\PHP-WU,2013-02-21 07:47:00,
2013-02-21 02:53:00,28.2,16.5,30.21,NNE,22,0.0,-999.0,61,0.00,Sunny,,0.00,Open2300\PHP-WU,2013-02-21 07:53:00,
2013-02-21 02:59:00,27.7,16.0,30.21,NNE,22,0.0,-999.0,61,0.00,Sunny,,0.00,Open2300\PHP-WU,2013-02-21 07:59:00,
2013-02-21 03:05:00,27.5,16.2,30.21,NNE,22,0.0,-999.0,62,0.00,Sunny,,0.00,Open2300\PHP-WU,2013-02-21 08:05:00,
2013-02-21 03:11:00,27.3,16.3,30.21,NNE,22,0.0,-999.0,63,0.00,Sunny,,0.00,Open2300\PHP-WU,2013-02-21 08:11:00,
2013-02-21 03:17:00,27.0,16.0,30.21,NNE,22,0.0,-999.0,63,0.00,Sunny,,0.00,Open2300\PHP-WU,2013-02-21 08:17:00,
2013-02-21 03:23:00,27.0,16.0,30.21,NNE,22,0.0,-999.0,63,0.00,Sunny,,0.00,Open2300\PHP-WU,2013-02-21 08:23:00,
2013-02-21 03:29:00,26.6,16.0,30.21,NNE,22,0.0,-999.0,64,0.00,Sunny,,0.00,Open2300\PHP-WU,2013-02-21 08:29:00,
2013-02-21 03:35:00,26.2,16.0,30.21,NNE,22,0.0,-999.0,65,0.00,Sunny,,0.00,Open2300\PHP-WU,2013-02-21 08:35:00,
2013-02-21 03:42:00,25.7,15.5,30.21,NNE,22,0.0,-999.0,65,0.00,Sunny,,0.00,Open2300\PHP-WU,2013-02-21 08:42:00,
2013-02-21 03:48:00,25.3,15.5,30.21,NNE,22,0.0,-999.0,66,0.00,Sunny,,0.00,Open2300\PHP-WU,2013-02-21 08:48:00,
2013-02-21 03:54:00,25.2,16.0,30.21,NNE,22,0.0,-999.0,68,0.00,Sunny,,0.00,Open2300\PHP-WU,2013-02-21 08:54:00,
2013-02-21 04:02:00,25.5,16.4,30.21,NNE,22,0.0,-999.0,68,0.00,Sunny,,0.00,Open2300\PHP-WU,2013-02-21 09:02:00,
2013-02-21 04:08:00,25.5,16.4,30.21,NNE,22,0.0,-999.0,68,0.00,Sunny,,0.00,Open2300\PHP-WU,2013-02-21 09:08:00,
2013-02-21 04:14:00,25.3,16.5,30.21,NNE,22,0.0,-999.0,69,0.00,Sunny,,0.00,Open2300\PHP-WU,2013-02-21 09:14:00,
2013-02-21 04:20:00,25.2,16.3,30.22,NNE,22,0.0,-999.0,69,0.00,Sunny,,0.00,Open2300\PHP-WU,2013-02-21 09:20:00,
2013-02-21 04:26:00,25.3,16.5,30.22,NNE,22,0.0,-999.0,69,0.00,Sunny,,0.00,Open2300\PHP-WU,2013-02-21 09:26:00,
2013-02-21 04:32:00,25.0,16.5,30.22,NNE,22,0.0,-999.0,70,0.00,Sunny,,0.00,Open2300\PHP-WU,2013-02-21 09:32:00,
2013-02-21 04:38:00,24.6,16.2,30.22,NNE,22,0.0,-999.0,70,0.00,Sunny,,0.00,Open2300\PHP-WU,2013-02-21 09:38:00,
2013-02-21 04:44:00,24.4,16.3,30.22,NNE,22,0.0,-999.0,71,0.00,Sunny,,0.00,Open2300\PHP-WU,2013-02-21 09:44:00,
2013-02-21 04:50:00,24.4,16.3,30.22,NNE,22,0.0,-999.0,71,0.00,Sunny,,0.00,Open2300\PHP-WU,2013-02-21 09:50:00,
2013-02-21 04:56:00,24.1,16.0,30.22,NNE,22,0.0,-999.0,71,0.00,Sunny,,0.00,Open2300\PHP-WU,2013-02-21 09:56:00,
2013-02-21 05:02:00,23.9,16.2,30.22,NNE,22,0.0,-999.0,72,0.00,Sunny,,0.00,Open2300\PHP-WU,2013-02-21 10:02:00,
2013-02-21 05:08:00,23.5,15.8,30.22,NNE,22,0.0,-999.0,72,0.00,Sunny,,0.00,Open2300\PHP-WU,2013-02-21 10:08:00,
2013-02-21 05:14:00,23.2,15.8,30.22,NNE,22,0.0,-999.0,73,0.00,Sunny,,0.00,Open2300\PHP-WU,2013-02-21 10:14:00,
2013-02-21 05:20:00,23.2,15.8,30.23,NNE,22,0.0,-999.0,73,0.00,Sunny,,0.00,Open2300\PHP-WU,2013-02-21 10:20:00,
2013-02-21 05:26:00,22.8,15.5,30.23,NNE,22,0.0,-999.0,73,0.00,Sunny,,0.00,Open2300\PHP-WU,2013-02-21 10:26:00,
2013-02-21 05:32:00,22.8,15.8,30.24,NNE,22,0.0,-999.0,74,0.00,Sunny,,0.00,Open2300\PHP-WU,2013-02-21 10:32:00,
2013-02-21 05:38:00,22.8,15.8,30.24,NNE,22,0.0,-999.0,74,0.00,Sunny,,0.00,Open2300\PHP-WU,2013-02-21 10:38:00,
2013-02-21 05:44:00,22.8,16.1,30.24,NNE,22,0.0,-999.0,75,0.00,Sunny,,0.00,Open2300\PHP-WU,2013-02-21 10:44:00,
2013-02-21 05:50:00,22.8,16.1,30.24,NNE,22,0.0,-999.0,75,0.00,Sunny,,0.00,Open2300\PHP-WU,2013-02-21 10:50:00,
2013-02-21 05:56:00,22.5,15.7,30.24,NNE,22,0.0,-999.0,75,0.00,Sunny,,0.00,Open2300\PHP-WU,2013-02-21 10:56:00,
2013-02-21 06:02:00,22.3,15.8,30.25,NNE,22,0.0,-999.0,76,0.00,Sunny,,0.00,Open2300\PHP-WU,2013-02-21 11:02:00,
2013-02-21 06:08:00,22.5,16.0,30.25,NNE,22,0.0,-999.0,76,0.00,Sunny,,0.00,Open2300\PHP-WU,2013-02-21 11:08:00,
2013-02-21 06:14:00,22.3,15.8,30.25,NNE,22,0.0,-999.0,76,0.00,Sunny,,0.00,Open2300\PHP-WU,2013-02-21 11:14:00,
2013-02-21 06:20:00,22.1,16.0,30.25,NNE,22,0.0,-999.0,77,0.00,Sunny,,0.00,Open2300\PHP-WU,2013-02-21 11:20:00,
2013-02-21 06:26:00,22.1,16.0,30.26,NNE,22,0.0,-999.0,77,0.00,Sunny,,0.00,Open2300\PHP-WU,2013-02-21 11:26:00,
2013-02-21 06:32:00,21.9,15.8,30.26,NNE,22,0.0,-999.0,77,0.00,Sunny,,0.00,Open2300\PHP-WU,2013-02-21 11:32:00,
2013-02-21 06:38:00,21.7,15.6,30.26,NNE,22,0.0,-999.0,77,0.00,Sunny,,0.00,Open2300\PHP-WU,2013-02-21 11:38:00,
2013-02-21 06:44:00,21.9,15.8,30.26,NNE,22,0.0,-999.0,77,0.00,Sunny,,0.00,Open2300\PHP-WU,2013-02-21 11:44:00,
2013-02-21 06:50:00,21.6,15.4,30.26,NNE,22,0.0,-999.0,77,0.00,Sunny,,0.00,Open2300\PHP-WU,2013-02-21 11:50:00,
2013-02-21 06:56:00,21.6,15.7,30.27,NNE,22,0.0,-999.0,78,0.00,Sunny,,0.00,Open2300\PHP-WU,2013-02-21 11:56:00,
2013-02-21 07:02:00,21.9,16.1,30.27,NNE,22,0.0,-999.0,78,0.00,Sunny,,0.00,Open2300\PHP-WU,2013-02-21 12:02:00,
2013-02-21 07:08:00,22.1,16.3,30.27,NNE,22,0.0,-999.0,78,0.00,Sunny,,0.00,Open2300\PHP-WU,2013-02-21 12:08:00,
2013-02-21 07:14:00,21.9,16.1,30.27,NNE,22,0.0,-999.0,78,0.00,Sunny,,0.00,Open2300\PHP-WU,2013-02-21 12:14:00,
2013-02-21 07:20:00,21.7,15.9,30.27,NNE,22,0.0,-999.0,78,0.00,Sunny,,0.00,Open2300\PHP-WU,2013-02-21 12:20:00,
2013-02-21 07:26:00,21.7,15.9,30.27,NNE,22,0.0,-999.0,78,0.00,Sunny,,0.00,Open2300\PHP-WU,2013-02-21 12:26:00,
2013-02-21 07:32:00,21.9,16.4,30.27,NNE,22,0.0,-999.0,79,0.00,Sunny,,0.00,Open2300\PHP-WU,2013-02-21 12:32:00,
2013-02-21 07:37:00,22.1,16.3,30.27,NNE,22,0.0,-999.0,78,0.00,Sunny,,0.00,Open2300\PHP-WU,2013-02-21 12:37:00,
2013-02-21 07:44:00,22.6,17.1,30.27,NNE,22,0.0,-999.0,79,0.00,Sunny,,0.00,Open2300\PHP-WU,2013-02-21 12:44:00,
2013-02-21 07:49:00,22.6,16.8,30.27,NNE,22,0.0,-999.0,78,0.00,Sunny,,0.00,Open2300\PHP-WU,2013-02-21 12:49:00,
2013-02-21 07:56:00,23.0,17.2,30.27,NNE,22,0.0,-999.0,78,0.00,Sunny,,0.00,Open2300\PHP-WU,2013-02-21 12:56:00,
2013-02-21 08:02:00,23.5,17.7,30.27,NNE,22,0.0,-999.0,78,0.00,Sunny,,0.00,Open2300\PHP-WU,2013-02-21 13:02:00,
2013-02-21 08:08:00,23.7,17.9,30.28,NNE,22,0.0,-999.0,78,0.00,Sunny,,0.00,Open2300\PHP-WU,2013-02-21 13:08:00,
2013-02-21 08:14:00,24.1,18.2,30.28,NNE,22,0.0,-999.0,78,0.00,Sunny,,0.00,Open2300\PHP-WU,2013-02-21 13:14:00,
2013-02-21 08:19:00,25.0,18.8,30.28,NNE,22,0.0,-999.0,77,0.00,Sunny,,0.00,Open2300\PHP-WU,2013-02-21 13:19:00,
2013-02-21 08:26:00,26.2,19.6,30.28,NNE,22,0.0,-999.0,76,0.00,Sunny,,0.00,Open2300\PHP-WU,2013-02-21 13:26:00,
2013-02-21 08:32:00,27.7,20.1,30.29,North,0,0.0,-999.0,73,0.00,Sunny,,0.00,Open2300\PHP-WU,2013-02-21 13:32:00,
2013-02-21 08:37:00,29.3,20.0,30.29,NNE,22,0.0,-999.0,68,0.00,Sunny,,0.00,Open2300\PHP-WU,2013-02-21 13:37:00,
2013-02-21 08:43:00,30.7,19.9,30.29,West,270,0.0,-999.0,64,0.00,Sunny,,0.00,Open2300\PHP-WU,2013-02-21 13:43:00,
2013-02-21 08:49:00,31.8,19.6,30.29,North,0,1.6,-999.0,60,0.00,Sunny,,0.00,Open2300\PHP-WU,2013-02-21 13:49:00,
2013-02-21 08:55:00,32.7,19.5,30.30,ENE,67,0.9,-999.0,58,0.00,Sunny,,0.00,Open2300\PHP-WU,2013-02-21 13:55:00,
2013-02-21 09:01:00,33.6,19.1,30.29,NNE,22,0.0,-999.0,55,0.00,Sunny,,0.00,Open2300\PHP-WU,2013-02-21 14:01:00,
2013-02-21 09:07:00,34.3,19.3,30.29,ENE,67,0.0,-999.0,54,0.00,Sunny,,0.00,Open2300\PHP-WU,2013-02-21 14:07:00,
2013-02-21 09:13:00,36.3,19.9,30.30,NNE,22,0.0,-999.0,51,0.00,Sunny,,0.00,Open2300\PHP-WU,2013-02-21 14:13:00,
2013-02-21 09:19:00,37.9,21.4,30.30,WSW,247,0.0,-999.0,51,0.00,Sunny,,0.00,Open2300\PHP-WU,2013-02-21 14:19:00,
2013-02-21 09:25:00,39.0,20.4,30.29,North,0,0.0,-999.0,47,0.00,Sunny,,0.00,Open2300\PHP-WU,2013-02-21 14:25:00,
2013-02-21 09:31:00,39.9,21.2,30.29,NE,45,0.0,-999.0,47,0.00,Sunny,,0.00,Open2300\PHP-WU,2013-02-21 14:31:00,
2013-02-21 09:37:00,40.6,20.8,30.29,NNE,22,0.0,-999.0,45,0.00,Sunny,,0.00,Open2300\PHP-WU,2013-02-21 14:37:00,
2013-02-21 09:43:00,41.7,22.3,30.29,West,270,0.0,-999.0,46,0.00,Sunny,,0.00,Open2300\PHP-WU,2013-02-21 14:43:00,
2013-02-21 09:49:00,42.3,22.3,30.29,NNW,337,0.0,-999.0,45,0.00,Sunny,,0.00,Open2300\PHP-WU,2013-02-21 14:49:00,
2013-02-21 09:55:00,43.0,23.0,30.28,North,0,0.0,-999.0,45,0.00,Sunny,,0.00,Open2300\PHP-WU,2013-02-21 14:55:00,
2013-02-21 10:01:00,43.9,22.7,30.28,WNW,292,0.0,-999.0,43,0.00,Sunny,,0.00,Open2300\PHP-WU,2013-02-21 15:01:00,
2013-02-21 10:07:00,44.2,23.0,30.28,North,0,0.0,-999.0,43,0.00,Sunny,,0.00,Open2300\PHP-WU,2013-02-21 15:07:00,
2013-02-21 10:13:00,44.6,22.8,30.28,WNW,292,0.0,-999.0,42,0.00,Sunny,,0.00,Open2300\PHP-WU,2013-02-21 15:13:00,
2013-02-21 10:19:00,45.1,23.3,30.28,NW,315,0.0,-999.0,42,0.00,Sunny,,0.00,Open2300\PHP-WU,2013-02-21 15:19:00,
2013-02-21 10:25:00,44.2,21.4,30.27,West,270,0.0,-999.0,40,0.00,Sunny,,0.00,Open2300\PHP-WU,2013-02-21 15:25:00,
2013-02-21 10:31:00,44.4,21.6,30.27,North,0,0.0,-999.0,40,0.00,Sunny,,0.00,Open2300\PHP-WU,2013-02-21 15:31:00,
2013-02-21 10:37:00,45.0,21.4,30.28,NNE,22,0.0,-999.0,39,0.00,Sunny,,0.00,Open2300\PHP-WU,2013-02-21 15:37:00,
2013-02-21 10:43:00,45.1,21.6,30.27,NNE,22,0.0,-999.0,39,0.00,Sunny,,0.00,Open2300\PHP-WU,2013-02-21 15:43:00,
2013-02-21 10:49:00,45.7,22.7,30.27,SW,225,0.0,-999.0,40,0.00,Sunny,,0.00,Open2300\PHP-WU,2013-02-21 15:49:00,
2013-02-21 10:55:00,45.9,21.5,30.27,NW,315,0.0,-999.0,38,0.00,Sunny,,0.00,Open2300\PHP-WU,2013-02-21 15:55:00,
2013-02-21 11:01:00,46.2,21.9,30.27,SSW,202,0.0,-999.0,38,0.00,Sunny,,0.00,Open2300\PHP-WU,2013-02-21 16:01:00,
2013-02-21 11:07:00,46.6,21.5,30.27,ESE,112,0.0,-999.0,37,0.00,Sunny,,0.00,Open2300\PHP-WU,2013-02-21 16:07:00,
2013-02-21 11:13:00,47.1,22.0,30.27,WNW,292,0.0,-999.0,37,0.00,Sunny,,0.00,Open2300\PHP-WU,2013-02-21 16:13:00,
2013-02-21 11:19:00,47.1,21.3,30.27,North,0,0.0,-999.0,36,0.00,Sunny,,0.00,Open2300\PHP-WU,2013-02-21 16:19:00,
2013-02-21 11:25:00,47.5,21.0,30.27,North,0,0.0,-999.0,35,0.00,Sunny,,0.00,Open2300\PHP-WU,2013-02-21 16:25:00,
2013-02-21 11:31:00,48.0,21.5,30.27,North,0,0.0,-999.0,35,0.00,Sunny,,0.00,Open2300\PHP-WU,2013-02-21 16:31:00,
2013-02-21 11:37:00,48.4,22.5,30.27,West,270,0.0,-999.0,36,0.00,Sunny,,0.00,Open2300\PHP-WU,2013-02-21 16:37:00,
2013-02-21 11:43:00,48.4,22.5,30.27,SSW,202,0.0,-999.0,36,0.00,Sunny,,0.00,Open2300\PHP-WU,2013-02-21 16:43:00,
2013-02-21 11:49:00,48.7,22.1,30.26,North,0,0.0,-999.0,35,0.00,Sunny,,0.00,Open2300\PHP-WU,2013-02-21 16:49:00,
2013-02-21 11:55:00,49.3,21.9,30.26,NE,45,0.0,-999.0,34,0.00,Sunny,,0.00,Open2300\PHP-WU,2013-02-21 16:55:00,
2013-02-21 12:01:00,49.8,22.3,30.26,North,0,0.0,-999.0,34,0.00,Sunny,,0.00,Open2300\PHP-WU,2013-02-21 17:01:00,
2013-02-21 12:07:00,50.0,22.5,30.26,North,0,0.0,-999.0,34,0.00,Sunny,,0.00,Open2300\PHP-WU,2013-02-21 17:07:00,
2013-02-21 12:13:00,50.2,22.7,30.25,NNW,337,1.1,-999.0,34,0.00,Sunny,,0.00,Open2300\PHP-WU,2013-02-21 17:13:00,
2013-02-21 12:40:00,51.1,22.1,30.24,WSW,247,0.0,-999.0,32,0.00,Sunny,,0.00,Open2300\PHP-WU,2013-02-21 17:40:00,
2013-02-21 12:46:00,51.6,23.3,30.24,WSW,247,0.0,-999.0,33,0.00,Sunny,,0.00,Open2300\PHP-WU,2013-02-21 17:46:00,
2013-02-21 12:52:00,51.6,21.9,30.23,WSW,247,0.0,-999.0,31,0.00,Sunny,,0.00,Open2300\PHP-WU,2013-02-21 17:52:00,
2013-02-21 12:58:00,52.0,22.9,30.23,WSW,247,0.0,-999.0,32,0.00,Sunny,,0.00,Open2300\PHP-WU,2013-02-21 17:58:00,
2013-02-21 13:04:00,52.5,22.7,30.23,WSW,247,0.0,-999.0,31,0.00,Sunny,,0.00,Open2300\PHP-WU,2013-02-21 18:04:00,
2013-02-21 13:10:00,52.7,23.6,30.23,WSW,247,0.0,-999.0,32,0.00,Sunny,,0.00,Open2300\PHP-WU,2013-02-21 18:10:00,
2013-02-21 13:16:00,53.4,23.5,30.22,WSW,247,0.0,-999.0,31,0.00,Sunny,,0.00,Open2300\PHP-WU,2013-02-21 18:16:00,
2013-02-21 13:22:00,53.4,22.8,30.22,WSW,247,8.7,-999.0,30,0.00,Sunny,,0.00,Open2300\PHP-WU,2013-02-21 18:22:00,
2013-02-21 13:28:00,53.8,23.1,30.21,WSW,247,0.0,-999.0,30,0.00,Sunny,,0.00,Open2300\PHP-WU,2013-02-21 18:28:00,
2013-02-21 13:34:00,54.5,22.8,30.21,WSW,247,0.0,-999.0,29,0.00,Sunny,,0.00,Open2300\PHP-WU,2013-02-21 18:34:00,
2013-02-21 13:40:00,54.5,22.8,30.21,WSW,247,0.0,-999.0,29,0.00,Sunny,,0.00,Open2300\PHP-WU,2013-02-21 18:40:00,
2013-02-21 13:46:00,54.5,22.8,30.20,WSW,247,6.7,-999.0,29,0.00,Sunny,,0.00,Open2300\PHP-WU,2013-02-21 18:46:00,
2013-02-21 13:52:00,55.2,23.3,30.20,WSW,247,0.0,-999.0,29,0.00,Sunny,,0.00,Open2300\PHP-WU,2013-02-21 18:52:00,
2013-02-21 13:58:00,55.9,24.0,30.20,WSW,247,0.0,-999.0,29,0.00,Sunny,,0.00,Open2300\PHP-WU,2013-02-21 18:58:00,
2013-02-21 14:04:00,55.9,23.0,30.19,WSW,247,0.0,-999.0,28,0.00,Sunny,,0.00,Open2300\PHP-WU,2013-02-21 19:04:00,
2013-02-21 14:10:00,56.1,23.2,30.19,WSW,247,4.5,-999.0,28,0.00,Sunny,,0.00,Open2300\PHP-WU,2013-02-21 19:10:00,
2013-02-21 14:16:00,56.1,23.2,30.19,WSW,247,4.5,-999.0,28,0.00,Sunny,,0.00,Open2300\PHP-WU,2013-02-21 19:16:00,
2013-02-21 14:22:00,56.8,22.9,30.19,WSW,247,0.0,-999.0,27,0.00,Sunny,,0.00,Open2300\PHP-WU,2013-02-21 19:22:00,
2013-02-21 14:28:00,56.1,22.2,30.19,WSW,247,0.0,-999.0,27,0.00,Sunny,,0.00,Open2300\PHP-WU,2013-02-21 19:28:00,
2013-02-21 14:34:00,56.8,22.9,30.19,WSW,247,0.0,-999.0,27,0.00,Sunny,,0.00,Open2300\PHP-WU,2013-02-21 19:34:00,
2013-02-21 14:40:00,57.4,23.3,30.19,WSW,247,0.0,-999.0,27,0.00,Sunny,,0.00,Open2300\PHP-WU,2013-02-21 19:40:00,
2013-02-21 14:46:00,57.4,24.3,30.19,WSW,247,0.0,-999.0,28,0.00,Sunny,,0.00,Open2300\PHP-WU,2013-02-21 19:46:00,
2013-02-21 14:52:00,57.4,23.3,30.19,WSW,247,0.0,-999.0,27,0.00,Sunny,,0.00,Open2300\PHP-WU,2013-02-21 19:52:00,
2013-02-21 14:58:00,57.6,22.6,30.18,WSW,247,0.0,-999.0,26,0.00,Sunny,,0.00,Open2300\PHP-WU,2013-02-21 19:58:00,
2013-02-21 15:04:00,57.6,23.5,30.18,WSW,247,0.0,-999.0,27,0.00,Sunny,,0.00,Open2300\PHP-WU,2013-02-21 20:04:00,
2013-02-21 15:10:00,57.6,23.5,30.18,WSW,247,0.0,-999.0,27,0.00,Sunny,,0.00,Open2300\PHP-WU,2013-02-21 20:10:00,
2013-02-21 15:16:00,57.6,23.5,30.19,WSW,247,0.0,-999.0,27,0.00,Sunny,,0.00,Open2300\PHP-WU,2013-02-21 20:16:00,
2013-02-21 15:22:00,57.7,22.7,30.19,WSW,247,0.0,-999.0,26,0.00,Sunny,,0.00,Open2300\PHP-WU,2013-02-21 20:22:00,
2013-02-21 15:28:00,57.9,22.9,30.19,WSW,247,0.9,-999.0,26,0.00,Sunny,,0.00,Open2300\PHP-WU,2013-02-21 20:28:00,
2013-02-21 15:34:00,57.7,22.7,30.19,WSW,247,0.9,-999.0,26,0.00,Sunny,,0.00,Open2300\PHP-WU,2013-02-21 20:34:00,
2013-02-21 15:40:00,57.9,22.9,30.19,WSW,247,0.9,-999.0,26,0.00,Sunny,,0.00,Open2300\PHP-WU,2013-02-21 20:40:00,
2013-02-21 15:46:00,57.9,22.9,30.19,WNW,292,0.0,-999.0,26,0.00,Sunny,,0.00,Open2300\PHP-WU,2013-02-21 20:46:00,
2013-02-21 15:52:00,57.9,22.9,30.19,WSW,247,0.0,-999.0,26,0.00,Sunny,,0.00,Open2300\PHP-WU,2013-02-21 20:52:00,
2013-02-21 15:58:00,58.1,24.0,30.19,WSW,247,0.0,-999.0,27,0.00,Sunny,,0.00,Open2300\PHP-WU,2013-02-21 20:58:00,
2013-02-21 16:04:00,57.7,22.7,30.19,WSW,247,0.0,-999.0,26,0.00,Sunny,,0.00,Open2300\PHP-WU,2013-02-21 21:04:00,
2013-02-21 16:10:00,57.7,22.7,30.19,WSW,247,0.0,-999.0,26,0.00,Sunny,,0.00,Open2300\PHP-WU,2013-02-21 21:10:00,
2013-02-21 16:16:00,57.7,22.7,30.20,WSW,247,0.0,-999.0,26,0.00,Sunny,,0.00,Open2300\PHP-WU,2013-02-21 21:16:00,
2013-02-21 16:22:00,58.3,24.1,30.20,WSW,247,0.0,-999.0,27,0.00,Sunny,,0.00,Open2300\PHP-WU,2013-02-21 21:22:00,
2013-02-21 16:28:00,57.6,21.6,30.19,WSW,247,4.5,-999.0,25,0.00,Sunny,,0.00,Open2300\PHP-WU,2013-02-21 21:28:00,
2013-02-21 16:34:00,57.0,23.0,30.19,WSW,247,0.0,-999.0,27,0.00,Sunny,,0.00,Open2300\PHP-WU,2013-02-21 21:34:00,
2013-02-21 16:40:00,56.8,22.9,30.20,WSW,247,0.0,-999.0,27,0.00,Sunny,,0.00,Open2300\PHP-WU,2013-02-21 21:40:00,
2013-02-21 16:46:00,56.8,22.9,30.20,WSW,247,0.0,-999.0,27,0.00,Sunny,,0.00,Open2300\PHP-WU,2013-02-21 21:46:00,
2013-02-21 16:52:00,56.1,22.2,30.21,WSW,247,0.0,-999.0,27,0.00,Sunny,,0.00,Open2300\PHP-WU,2013-02-21 21:52:00,
2013-02-21 16:58:00,55.9,22.1,30.21,WSW,247,0.0,-999.0,27,0.00,Sunny,,0.00,Open2300\PHP-WU,2013-02-21 21:58:00,
2013-02-21 17:03:00,55.8,21.9,30.21,North,0,0.0,-999.0,27,0.00,Sunny,,0.00,Open2300\PHP-WU,2013-02-21 22:03:00,
2013-02-21 17:10:00,55.2,21.5,30.22,NNW,337,0.0,-999.0,27,0.00,Sunny,,0.00,Open2300\PHP-WU,2013-02-21 22:10:00,
2013-02-21 17:16:00,54.3,21.7,30.22,NNW,337,0.7,-999.0,28,0.00,Sunny,,0.00,Open2300\PHP-WU,2013-02-21 22:16:00,
2013-02-21 17:22:00,53.8,21.2,30.23,North,0,0.0,-999.0,28,0.00,Sunny,,0.00,Open2300\PHP-WU,2013-02-21 22:22:00,
2013-02-21 17:28:00,51.8,20.4,30.22,North,0,0.0,-999.0,29,0.00,Sunny,,0.00,Open2300\PHP-WU,2013-02-21 22:28:00,
2013-02-21 17:34:00,50.5,20.2,30.22,NNE,22,0.0,-999.0,30,0.00,Sunny,,0.00,Open2300\PHP-WU,2013-02-21 22:34:00,
2013-02-21 17:39:00,49.8,20.3,30.23,North,0,0.0,-999.0,31,0.00,Sunny,,0.00,Open2300\PHP-WU,2013-02-21 22:39:00,
2013-02-21 17:45:00,48.9,20.2,30.23,NNE,22,0.0,-999.0,32,0.00,Sunny,,0.00,Open2300\PHP-WU,2013-02-21 22:45:00,
2013-02-21 17:51:00,48.6,20.6,30.24,NNE,22,0.0,-999.0,33,0.00,Sunny,,0.00,Open2300\PHP-WU,2013-02-21 22:51:00,
2013-02-21 17:57:00,48.0,20.8,30.24,NNE,22,0.0,-999.0,34,0.00,Sunny,,0.00,Open2300\PHP-WU,2013-02-21 22:57:00,
2013-02-21 18:04:00,46.9,19.9,30.24,NNE,22,0.0,-999.0,34,0.00,Sunny,,0.00,Open2300\PHP-WU,2013-02-21 23:04:00,
2013-02-21 18:09:00,46.2,19.9,30.25,NNE,22,0.0,-999.0,35,0.00,Sunny,,0.00,Open2300\PHP-WU,2013-02-21 23:09:00,
2013-02-21 18:16:00,45.3,19.7,30.25,NNE,22,0.0,-999.0,36,0.00,Sunny,,0.00,Open2300\PHP-WU,2013-02-21 23:16:00,
2013-02-21 18:21:00,45.1,20.2,30.24,NNE,22,0.0,-999.0,37,0.00,Sunny,,0.00,Open2300\PHP-WU,2013-02-21 23:21:00,
2013-02-21 18:27:00,44.8,20.6,30.24,NNE,22,0.0,-999.0,38,0.00,Sunny,,0.00,Open2300\PHP-WU,2013-02-21 23:27:00,
2013-02-21 18:33:00,44.4,20.9,30.24,NNE,22,0.0,-999.0,39,0.00,Sunny,,0.00,Open2300\PHP-WU,2013-02-21 23:33:00,
2013-02-21 18:39:00,43.5,20.8,30.23,NNE,22,0.0,-999.0,40,0.00,Sunny,,0.00,Open2300\PHP-WU,2013-02-21 23:39:00,
2013-02-21 18:45:00,43.3,21.1,30.23,NNE,22,0.0,-999.0,41,0.00,Sunny,,0.00,Open2300\PHP-WU,2013-02-21 23:45:00,
2013-02-21 18:54:00,43.7,21.5,30.22,East,90,0.0,-999.0,41,0.00,Sunny,,0.00,Open2300\PHP-WU,2013-02-21 23:54:00,
2013-02-21 19:00:00,44.2,21.4,30.22,North,0,0.2,-999.0,40,0.00,Sunny,,0.00,Open2300\PHP-WU,2013-02-22 00:00:00,
2013-02-21 19:06:00,44.4,21.6,30.24,NNE,22,0.0,-999.0,40,0.00,Sunny,,0.00,Open2300\PHP-WU,2013-02-22 00:06:00,
2013-02-21 19:12:00,44.4,20.9,30.25,North,0,0.0,-999.0,39,0.00,Sunny,,0.00,Open2300\PHP-WU,2013-02-22 00:12:00,
2013-02-21 19:18:00,44.4,20.9,30.26,NNE,22,0.0,-999.0,39,0.00,Sunny,,0.00,Open2300\PHP-WU,2013-02-22 00:18:00,
2013-02-21 19:24:00,44.4,20.9,30.27,NNE,22,0.0,-999.0,39,0.00,Sunny,,0.00,Open2300\PHP-WU,2013-02-22 00:24:00,
2013-02-21 19:30:00,43.9,21.1,30.27,NNE,22,0.0,-999.0,40,0.00,Sunny,,0.00,Open2300\PHP-WU,2013-02-22 00:30:00,
2013-02-21 19:36:00,43.3,21.1,30.27,NNE,22,0.0,-999.0,41,0.00,Sunny,,0.00,Open2300\PHP-WU,2013-02-22 00:36:00,
2013-02-21 19:42:00,42.6,21.0,30.28,NNE,22,0.0,-999.0,42,0.00,Sunny,,0.00,Open2300\PHP-WU,2013-02-22 00:42:00,
2013-02-21 19:48:00,41.9,20.4,30.28,NNE,22,0.0,-999.0,42,0.00,Sunny,,0.00,Open2300\PHP-WU,2013-02-22 00:48:00,
2013-02-21 19:54:00,41.5,21.1,30.28,NNE,22,0.0,-999.0,44,0.00,Sunny,,0.00,Open2300\PHP-WU,2013-02-22 00:54:00,
2013-02-21 20:00:00,40.8,21.5,30.28,NNE,22,0.0,-999.0,46,0.00,Sunny,,0.00,Open2300\PHP-WU,2013-02-22 01:00:00,
2013-02-21 20:06:00,40.3,21.5,30.28,NNE,22,0.0,-999.0,47,0.00,Sunny,,0.00,Open2300\PHP-WU,2013-02-22 01:06:00,
2013-02-21 20:12:00,39.9,21.2,30.29,NNE,22,0.0,-999.0,47,0.00,Sunny,,0.00,Open2300\PHP-WU,2013-02-22 01:12:00,
2013-02-21 20:18:00,39.7,21.5,30.29,NNE,22,0.0,-999.0,48,0.00,Sunny,,0.00,Open2300\PHP-WU,2013-02-22 01:18:00,
2013-02-21 20:24:00,39.6,21.9,30.28,NNE,22,0.0,-999.0,49,0.00,Sunny,,0.00,Open2300\PHP-WU,2013-02-22 01:24:00,
2013-02-21 20:30:00,39.6,21.9,30.28,NNE,22,0.0,-999.0,49,0.00,Sunny,,0.00,Open2300\PHP-WU,2013-02-22 01:30:00,
2013-02-21 20:36:00,39.7,22.1,30.29,NNE,22,0.0,-999.0,49,0.00,Sunny,,0.00,Open2300\PHP-WU,2013-02-22 01:36:00,
2013-02-21 20:42:00,39.9,22.7,30.28,NNE,22,0.0,-999.0,50,0.00,Sunny,,0.00,Open2300\PHP-WU,2013-02-22 01:42:00,
2013-02-21 20:48:00,39.9,22.7,30.29,NNE,22,0.0,-999.0,50,0.00,Sunny,,0.00,Open2300\PHP-WU,2013-02-22 01:48:00,
2013-02-21 20:54:00,39.9,22.7,30.29,NNE,22,0.0,-999.0,49,0.00,Sunny,,0.00,Open2300\PHP-WU,2013-02-22 01:54:00,
2013-02-21 21:00:00,40.6,22.9,30.28,NNE,22,0.0,-999.0,49,0.00,Sunny,,0.00,Open2300\PHP-WU,2013-02-22 02:00:00,
2013-02-21 21:06:00,40.8,22.5,30.27,NNE,22,0.0,-999.0,48,0.00,Sunny,,0.00,Open2300\PHP-WU,2013-02-22 02:06:00,
2013-02-21 21:12:00,41.4,22.5,30.27,North,0,0.0,-999.0,47,0.00,Sunny,,0.00,Open2300\PHP-WU,2013-02-22 02:12:00,
2013-02-21 21:18:00,42.1,22.7,30.27,NNE,22,0.0,-999.0,46,0.00,Sunny,,0.00,Open2300\PHP-WU,2013-02-22 02:18:00,
2013-02-21 21:24:00,42.6,22.6,30.28,North,0,0.0,-999.0,45,0.00,Sunny,,0.00,Open2300\PHP-WU,2013-02-22 02:24:00,
2013-02-21 21:30:00,42.8,22.3,30.28,NNE,22,0.0,-999.0,44,0.00,Sunny,,0.00,Open2300\PHP-WU,2013-02-22 02:30:00,
2013-02-21 21:36:00,43.0,21.9,30.28,East,90,0.0,-999.0,43,0.00,Sunny,,0.00,Open2300\PHP-WU,2013-02-22 02:36:00,
2013-02-21 21:42:00,43.2,22.1,30.28,North,0,0.0,-999.0,43,0.00,Sunny,,0.00,Open2300\PHP-WU,2013-02-22 02:42:00,
2013-02-21 21:48:00,43.3,21.7,30.29,NE,45,0.0,-999.0,42,0.00,Sunny,,0.00,Open2300\PHP-WU,2013-02-22 02:48:00,
2013-02-21 21:54:00,43.3,21.7,30.29,NNE,22,0.0,-999.0,42,0.00,Sunny,,0.00,Open2300\PHP-WU,2013-02-22 02:54:00,
2013-02-21 22:00:00,43.3,21.7,30.29,North,0,0.0,-999.0,42,0.00,Sunny,,0.00,Open2300\PHP-WU,2013-02-22 03:00:00,
2013-02-21 22:06:00,43.3,21.7,30.29,North,0,0.0,-999.0,42,0.00,Sunny,,0.00,Open2300\PHP-WU,2013-02-22 03:06:00,
2013-02-21 22:12:00,43.3,21.7,30.29,North,0,0.0,-999.0,42,0.00,Sunny,,0.00,Open2300\PHP-WU,2013-02-22 03:12:00,
2013-02-21 22:18:00,43.3,21.7,30.29,NNE,22,0.0,-999.0,42,0.00,Sunny,,0.00,Open2300\PHP-WU,2013-02-22 03:18:00,
2013-02-21 22:24:00,43.2,21.5,30.30,WNW,292,0.0,-999.0,42,0.00,Sunny,,0.00,Open2300\PHP-WU,2013-02-22 03:24:00,
2013-02-21 22:30:00,43.2,21.5,30.30,NNW,337,0.0,-999.0,42,0.00,Sunny,,0.00,Open2300\PHP-WU,2013-02-22 03:30:00,
2013-02-21 22:36:00,43.0,21.4,30.31,SE,135,0.0,-999.0,42,0.00,Sunny,,0.00,Open2300\PHP-WU,2013-02-22 03:36:00,
2013-02-21 22:42:00,43.0,21.4,30.33,NNE,22,0.0,-999.0,42,0.00,Sunny,,0.00,Open2300\PHP-WU,2013-02-22 03:42:00,
2013-02-21 22:48:00,42.8,21.2,30.33,NNE,22,0.0,-999.0,42,0.00,Sunny,,0.00,Open2300\PHP-WU,2013-02-22 03:48:00,
2013-02-21 22:54:00,42.8,21.7,30.32,NNE,22,0.0,-999.0,43,0.00,Sunny,,0.00,Open2300\PHP-WU,2013-02-22 03:54:00,
2013-02-21 22:59:00,42.8,21.7,30.33,NNE,22,0.0,-999.0,43,0.00,Sunny,,0.00,Open2300\PHP-WU,2013-02-22 03:59:00,
2013-02-21 23:06:00,42.8,21.7,30.34,NNE,22,0.0,-999.0,43,0.00,Sunny,,0.00,Open2300\PHP-WU,2013-02-22 04:06:00,
2013-02-21 23:11:00,42.8,21.7,30.33,NNE,22,0.0,-999.0,43,0.00,Sunny,,0.00,Open2300\PHP-WU,2013-02-22 04:11:00,
2013-02-21 23:24:00,42.1,21.6,30.32,North,0,0.0,-999.0,44,0.00,Sunny,,0.00,Open2300\PHP-WU,2013-02-22 04:24:00,
2013-02-21 23:30:00,41.9,21.4,30.31,NE,45,0.0,-999.0,44,0.00,Sunny,,0.00,Open2300\PHP-WU,2013-02-22 04:30:00,
2013-02-21 23:36:00,41.9,21.4,30.30,NE,45,0.0,-999.0,44,0.00,Sunny,,0.00,Open2300\PHP-WU,2013-02-22 04:36:00,
2013-02-21 23:41:00,41.7,21.3,30.30,NE,45,0.0,-999.0,44,0.00,Sunny,,0.00,Open2300\PHP-WU,2013-02-22 04:41:00,
2013-02-21 23:48:00,41.7,21.3,30.30,NNW,337,0.0,-999.0,44,0.00,Sunny,,0.00,Open2300\PHP-WU,2013-02-22 04:48:00,
2013-02-21 23:53:00,41.5,21.1,30.29,North,0,0.0,-999.0,44,0.00,Sunny,,0.00,Open2300\PHP-WU,2013-02-22 04:53:00,